Location: Drocourt
(49.0571°N, 1.7669°E)
Time: 11:02:22
(UTC+00:00)

Transit 4A - Pass Details

Date: 14 April 2024
Orbit: 871 x 971 km, 66.8° (Epoch: 24 May)

Event Time Altitude Azimuth Distance (km) Brightness Sun altitude
Rises 14:10:09 0° 210° (SSW) 3,540 11.7 41.4°
Reaches altitude 10° 14:12:41 10° 209° (SSW) 2,587 11.3 41.1°
Maximum altitude 14:18:40 82° 123° (ESE) 907 8.6 40.4°
Drops below altitude 10° 14:24:34 10° 37° (NE) 2,545 9.8 39.6°
Sets 14:27:02 0° 37° (NE) 3,480 10.4 39.3°
